Flag for Turkey Weather past 2 weeks in Mersin, Turkey

Now
72 °F

Broken clouds.


Feels Like: 75 °F
Forecast: 60 / 74 °F
Wind: 5 mph from South

Location: Adana / Sakirpasa

Current Time: Oct 24, 2014 at 6:30:59 PM

Latest Report: Oct 24, 2014 at 5:50 PM


Visibility: N/A

Pressure: 30.01 "Hg

Humidity: 65%

Dew point: 59 °F

Location of MersinLocation

Historic Weather in Mersin — Graph

°F

Mersin temperature yesterday

Maximum temperature yesterday: 81 °F (at 12:20 PM)
Minimum temperature yesterday: 61 °F (at 1:50 AM)
Average temperature yesterday: 71 °F

Past Weeks' High & Low Weather Summary

 TemperatureHumidityPressure
High88 °F (Oct 10, 2:50 PM)94% (Oct 10, 2:20 AM)30.09 "Hg (Oct 10, 2:20 AM)
Low46 °F (Oct 21, 5:50 AM)14% (Oct 20, 1:50 PM)29.77 "Hg (Oct 19, 2:50 AM)
Average69 °F63%29.95 "Hg
* Reported Oct 9 5:20 PM — Oct 24 5:20 PM, Mersin, Weather by CustomWeather, © 2014

Note: Actual official high and low records may vary slightly from our data, if they occured in-between our weather recording intervals... More about our weather records

Advertising

Mersin weather history for previous 24 hours

 ConditionsComfort  
Time TempWeatherWind HumidityBarometerVisibility
5:20 PM
Oct 24
72 °FBroken clouds.5 mph65%30.01 "HgN/A
4:50 PM73 °FBroken clouds.6 mph57%30.01 "HgN/A
4:20 PM73 °FBroken clouds.6 mph57%30.01 "HgN/A
3:50 PM73 °FBroken clouds.7 mph61%30.01 "HgN/A
3:20 PM75 °FBroken clouds.9 mph57%30.04 "HgN/A
2:50 PM75 °FBroken clouds.7 mph57%30.01 "HgN/A
2:20 PM75 °FBroken clouds.7 mph57%30.01 "HgN/A
1:50 PM75 °FBroken clouds.3 mph57%30.04 "HgN/A
1:20 PM75 °FBroken clouds.5 mph57%30.04 "HgN/A
12:50 PM75 °FBroken clouds.5 mph57%30.04 "HgN/A
12:20 PM77 °FBroken clouds.5 mph61%30.04 "HgN/A
11:50 AM75 °FBroken clouds.5 mph61%30.04 "HgN/A
11:20 AM73 °FBroken clouds.5 mph65%30.04 "HgN/A
10:50 AM73 °FBroken clouds.2 mph57%30.04 "HgN/A
10:20 AM73 °FBroken clouds.2 mph57%30.04 "HgN/A
9:50 AM72 °FBroken clouds.5 mph61%30.04 "HgN/A
9:20 AM72 °FBroken clouds.6 mph57%30.04 "HgN/A
8:50 AM70 °FBroken clouds.3 mph60%30.04 "HgN/A
8:20 AM68 °FScattered clouds.5 mph60%30.04 "HgN/A
7:50 AM66 °FPassing clouds.2 mph73%30.01 "HgN/A
7:20 AM63 °FPassing clouds.No wind77%30.01 "HgN/A
6:50 AM61 °FPassing clouds.3 mph88%30.01 "HgN/A
6:20 AM63 °FPassing clouds.1 mph77%30.01 "HgN/A
5:50 AM63 °FPassing clouds.3 mph83%30.01 "HgN/A
5:20 AM63 °FPassing clouds.5 mph77%30.01 "HgN/A
4:50 AM63 °FPassing clouds.5 mph83%30.01 "HgN/A
4:20 AM61 °FPassing clouds.No wind88%29.98 "HgN/A
3:50 AM64 °FPartly cloudy.1 mph78%30.01 "HgN/A
3:20 AM64 °FPartly cloudy.3 mph78%30.01 "HgN/A
2:50 AM64 °FPartly cloudy.3 mph78%30.01 "HgN/A
2:20 AM64 °FPartly cloudy.3 mph78%30.01 "HgN/A
1:50 AM66 °FPartly cloudy.5 mph73%30.01 "HgN/A
1:20 AM64 °FPartly cloudy.No wind78%30.01 "HgN/A
12:50 AM64 °FPartly cloudy.2 mph78%30.01 "HgN/A
12:20 AM68 °FPartly cloudy.No wind69%30.01 "HgN/A
11:50 PM
Oct 23
68 °FPartly cloudy.No wind69%30.01 "HgN/A
11:20 PM66 °FPartly cloudy.No wind73%30.01 "HgN/A
10:50 PM68 °FPartly cloudy.5 mph69%30.01 "HgN/A
10:20 PM66 °FPartly cloudy.2 mph73%30.01 "HgN/A
9:50 PM66 °FPartly cloudy.3 mph68%30.01 "HgN/A
9:20 PM70 °FPartly cloudy.No wind60%30.01 "HgN/A
8:50 PM68 °FPartly cloudy.3 mph64%29.98 "HgN/A
8:20 PM70 °FPartly cloudy.2 mph60%29.98 "HgN/A
7:50 PM68 °FPartly cloudy.1 mph64%29.98 "HgN/A
7:20 PM72 °FPartly cloudy.3 mph53%29.98 "HgN/A
6:50 PM70 °FBroken clouds.3 mph60%29.98 "HgN/A
6:20 PM72 °FBroken clouds.1 mph57%29.98 "HgN/A
Weather by CustomWeather, © 2014

See weather overviewHow to use our weather pages